Location: ?ejeti?ky
(50.4060°N, 14.9016°E)
Time: 20:13:43
(UTC+00:00)

X-37B - Pass Details

Date: 13 December 2021
Orbit: 334 x 337 km, 45.0° (Epoch: 11 January)

Event Time Altitude Azimuth Distance (km) Brightness Sun altitude
Rises 17:41:08 0° 262° (W) 2,105 5.7 -24.9°
Reaches altitude 10° 17:43:22 10° 246° (WSW) 1,267 4.1 -25.3°
Enters shadow 17:44:11 15° 234° (SW) 1,017 3.4 -25.4°
